GEFSSE_con_cape1000_000.txt.gz
Probability
0 16 100 19 3 26 87 94 100 100 100 100 100 100 100 100 97 94 97 97 97 100 100 100 100 100 100 100 100 100 100 100 100 100 100 100 100 100 100 100 100 100 100
0 65 100 100 39 45 87 97 100 100 100 100 100 100 100 100 100 100 100 100 97 97 97 100 100 100 100 100 100 100 100 100 100 100 100 100 100 100 100 90 97 100 100
0 94 100 100 100 90 94 100 100 100 100 100 100 100 100 100 100 100 100 100 97 97 97 94 100 100 100 100 100 100 100 100 100 100 100 100 100 100 100 87 94 100 100
6 100 100 100 100 100 100 100 100 100 100 100 100 100 100 100 100 100 100 100 97 97 97 97 100 100 100 100 100 100 100 100 100 100 100 68 90 100 100 100 100 90 90
32 100 100 100 100 100 100 100 100 100 100 100 100 100 100 100 100 100 100 100 100 97 94 97 100 100 100 100 100 100 100 100 100 100 100 100 97 87 100 100 100 100 94
68 100 100 100 100 100 100 100 100 100 100 100 100 100 100 100 97 97 97 97 97 97 100 100 100 100 97 100 100 100 100 100 100 100 100 100 100 100 100 100 100 100 100
84 100 100 100 100 100 100 100 100 100 100 100 100 100 100 100 100 97 97 100 100 100 97 100 100 97 100 97 97 100 100 100 100 100 100 100 100 100 100 100 100 100 100
94 100 100 100 100 100 100 100 100 100 100 100 100 100 100 100 100 100 97 97 100 100 100 97 97 97 97 100 100 100 100 100 100 100 100 100 100 100 100 100 100 100 100
100 100 100 100 100 100 100 100 100 100 100 100 100 100 100 100 100 100 100 100 100 100 100 100 97 97 100 100 100 100 100 100 100 100 94 97 97 100 100 100 100 100 100
100 100 100 100 100 100 100 100 100 100 100 100 100 100 100 100 100 100 100 100 100 100 100 100 100 100 100 100 100 100 100 100 100 100 97 94 97 100 100 100 100 100 100
100 100 100 100 100 100 100 100 100 100 100 97 100 100 100 100 100 100 100 100 100 100 100 100 100 100 100 100 100 100 100 100 94 94 94 71 94 90 84 100 100 100 100
68 100 100 100 100 100 100 100 100 100 100 97 100 100 100 100 97 100 100 100 100 100 100 100 100 100 100 100 100 100 100 97 97 97 97 94 97 90 100 100 100 100 100
0 74 100 100 100 100 100 100 100 100 97 97 97 97 94 97 97 100 97 100 100 100 100 100 100 100 94 100 100 97 97 97 97 97 97 100 100 100 100 100 100 100 97
6 35 100 100 87 100 100 100 100 100 90 87 84 74 55 35 52 48 48 32 29 74 94 94 84 61 39 39 81 81 81 84 81 84 97 100 100 100 100 100 100 100 84
58 94 100 97 87 74 71 77 94 100 94 74 61 58 29 13 3 3 10 6 0 0 3 35 32 23 10 16 32 65 68 58 68 74 97 97 100 100 100 100 100 100 100
100 100 100 94 87 68 55 3 35 77 74 16 19 19 19 3 3 0 0 0 0 0 0 13 16 13 0 3 16 26 65 77 84 71 90 94 100 100 100 100 100 100 100
97 97 97 100 74 32 13 3 3 3 3 3 6 3 10 3 3 0 0 0 0 0 0 0 0 0 0 0 0 0 10 35 58 71 77 87 94 100 100 100 100 100 100
71 65 61 100 97 45 3 0 0 0 3 0 0 0 0 0 0 0 0 0 0 0 0 0 0 0 0 0 0 0 0 3 6 32 61 87 97 100 100 100 100 100 100
29 26 13 39 90 45 6 0 0 0 0 0 0 0 0 0 0 0 0 0 0 0 0 0 0 0 0 3 0 0 0 0 3 6 35 84 90 100 100 100 100 100 100
3 3 3 3 26 13 0 0 0 0 0 0 0 0 0 0 0 0 0 0 0 0 0 0 0 0 0 6 0 0 0 0 3 3 6 6 29 68 90 97 100 100 100
3 3 0 0 0 0 0 0 0 0 0 0 0 0 0 0 0 23 16 0 0 0 0 0 0 0 0 0 0 0 0 0 0 0 3 6 6 13 10 13 19 65 84
0 0 0 0 0 0 0 0 0 0 0 0 0 3 3 0 0 0 0 0 0 0 0 0 0 0 0 0 0 0 0 0 0 0 0 0 0 3 3 3 3 3 0
0 0 0 0 0 0 0 0 0 0 0 0 0 0 0 0 0 0 0 0 0 0 0 0 0 0 0 0 0 0 0 0 0 0 0 0 0 0 0 0 0 0 0
0 0 0 0 0 0 0 0 0 0 0 0 0 0 0 0 0 0 0 0 0 0 0 0 0 0 0 0 0 0 0 0 0 0 0 0 0 0 0 0 0 0 0
0 0 0 0 0 0 0 0 0 0 0 0 0 0 0 0 0 0 0 0 0 0 0 0 0 0 0 0 0 0 0 0 0 0 0 0 0 0 0 0 0 0 0
0 0 0 0 0 0 0 0 0 0 0 0 0 0 0 0 0 0 0 0 0 0 0 0 0 0 0 0 0 0 0 0 0 0 0 0 0 0 0 0 0 0 0

GEFSSE_con_cape1000_006.txt.gz
Probability
0 0 0 71 100 100 100 100 100 100 100 100 100 100 100 100 100 100 100 100 100 100 100 100 100 100 100 100 97 84 97 100 100 100 100 100 100 100 100 94 97 74 97
0 3 3 97 100 100 100 100 100 100 100 100 100 100 100 100 100 100 100 100 100 100 100 100 100 100 100 100 87 39 74 97 100 100 100 94 97 97 84 65 94 100 94
10 3 0 97 100 100 100 100 100 100 100 100 100 100 100 100 100 100 97 97 94 90 84 90 100 100 100 97 94 55 26 29 84 100 100 26 32 48 26 29 90 100 94
26 19 3 97 100 100 100 100 100 100 100 100 100 100 100 100 100 100 97 97 77 71 65 48 68 100 100 100 94 97 81 65 32 29 0 3 3 90 58 29 45 81 84
65 55 74 97 100 100 100 100 100 100 100 100 100 100 100 100 100 100 94 90 61 58 55 58 81 81 100 100 100 97 97 97 90 39 0 0 0 52 87 90 58 26 35
71 55 84 100 100 100 100 100 100 100 100 100 100 100 100 100 100 100 97 90 77 61 68 77 84 68 68 84 100 100 94 94 90 35 6 3 6 81 81 100 97 87 84
71 61 77 100 100 100 100 100 100 100 100 100 100 100 100 100 97 97 90 94 68 35 81 97 97 74 65 65 32 39 65 84 65 55 61 58 68 100 100 100 100 100 100
77 52 68 100 100 100 100 100 100 100 100 100 100 100 100 100 94 84 71 77 100 100 74 71 87 90 84 90 97 87 48 29 0 0 13 52 94 100 100 100 100 100 100
45 65 58 55 100 100 100 100 100 100 100 100 100 100 100 100 100 100 97 90 94 100 100 90 61 39 61 87 94 100 100 81 10 0 0 19 97 97 97 100 100 100 100
32 81 61 13 32 100 100 100 100 100 100 100 100 100 100 100 100 100 100 100 100 100 100 100 90 87 97 100 100 100 100 84 0 0 13 74 100 81 77 94 100 100 100
23 94 84 29 52 61 48 90 100 100 100 100 100 100 100 100 97 100 100 100 97 100 100 100 100 100 100 100 100 100 100 71 3 0 6 26 97 77 65 77 94 100 100
71 94 100 90 100 35 3 61 90 84 100 100 100 100 100 100 100 77 81 100 100 100 100 100 100 100 100 94 100 100 100 32 3 6 19 58 100 87 81 97 97 100 100
87 94 97 100 100 94 84 84 94 100 100 100 100 100 100 100 100 87 90 100 100 100 94 97 100 97 45 84 94 90 87 71 81 61 39 100 100 100 100 100 100 100 100
77 94 84 100 100 100 100 100 100 100 100 100 100 100 100 100 100 87 100 74 84 100 100 100 100 55 52 87 90 87 100 100 100 97 100 100 100 100 100 100 100 100 100
90 94 97 100 100 100 100 100 100 100 100 100 100 100 100 100 100 74 100 100 100 97 97 100 100 100 100 100 94 55 42 87 97 94 97 100 100 100 100 100 100 100 100
94 94 97 100 100 100 100 100 100 100 100 100 100 100 100 100 100 100 100 100 100 100 90 97 100 100 100 100 100 87 94 90 97 100 100 100 100 100 100 100 100 100 100
100 94 100 100 100 100 100 100 100 100 100 100 100 100 100 100 100 100 100 100 100 100 97 100 100 100 100 100 100 94 100 100 97 100 100 100 100 100 100 100 100 100 100
100 100 100 100 100 100 100 100 100 100 97 100 100 100 100 100 100 100 100 100 100 100 100 100 100 100 100 100 100 100 100 100 100 100 100 100 97 97 100 100 100 100 100
100 100 100 100 100 100 100 100 100 100 100 100 90 94 97 97 97 100 100 100 100 100 100 100 97 100 100 100 100 100 100 100 100 90 87 68 77 94 97 100 100 100 100
100 100 100 100 100 100 100 100 100 100 100 100 84 84 81 81 74 87 100 100 100 100 100 100 100 100 100 100 84 74 77 68 68 58 65 10 6 6 32 58 90 100 100
97 100 100 94 90 97 94 97 97 97 97 84 81 65 61 55 55 61 65 87 94 94 100 100 100 100 100 81 35 23 0 0 0 16 6 0 0 0 13 35 71 90 100
84 81 77 71 45 71 81 87 90 84 74 61 52 55 39 26 29 19 39 55 68 90 94 97 94 90 52 19 6 0 0 0 0 0 0 0 0 0 0 6 81 100 100
35 55 39 52 35 32 45 48 61 68 65 45 52 39 29 23 16 13 10 26 42 68 87 81 74 42 13 6 0 0 0 0 0 0 6 0 26 13 0 19 77 97 100
3 3 23 61 61 58 61 39 42 55 48 48 48 29 23 3 3 0 3 0 3 29 32 23 6 16 26 10 6 16 16 19 0 0 3 3 23 29 13 6 10 32 68
0 0 10 35 71 71 58 48 45 39 42 39 42 23 13 3 0 0 0 0 0 3 0 3 19 10 3 3 0 0 0 3 0 0 0 6 16 35 13 3 0 3 10
0 0 0 6 19 42 42 42 29 35 45 42 32 10 10 0 0 0 0 0 0 0 3 26 26 10 10 10 16 16 3 0 0 3 3 39 65 68 23 19 6 3 3

GEFSSE_con_cape1000_012.txt.gz
Probability
0 0 100 100 100 100 100 100 100 97 87 84 94 100 100 100 100 100 100 100 100 100 100 100 100 100 100 87 94 100 100 100 100 100 100 100 100 90 77 81 97 29 84
0 0 100 100 100 100 100 100 100 100 94 97 97 100 100 97 100 100 100 100 100 100 100 100 100 100 97 48 55 84 97 100 90 87 90 94 84 71 74 84 100 35 58
0 13 100 100 100 100 100 100 100 100 97 97 100 100 100 94 87 81 84 90 84 81 81 94 94 94 87 35 6 13 32 65 68 71 94 42 42 61 42 71 81 61 29
0 0 81 100 100 100 100 100 100 100 100 100 100 100 100 97 74 48 42 45 39 29 29 48 68 81 65 42 19 10 6 10 23 61 90 87 3 55 45 35 45 39 3
0 0 100 100 100 100 100 100 100 100 100 100 100 100 100 100 97 81 58 39 26 19 6 16 32 55 71 77 65 58 35 19 29 32 6 29 26 68 81 35 32 35 19
3 19 100 100 100 100 100 100 100 100 100 100 100 100 100 100 97 90 81 55 35 26 13 16 23 29 45 81 97 90 87 87 81 26 6 16 16 90 97 77 52 42 45
23 61 87 100 100 100 100 100 100 100 100 100 100 100 100 100 100 94 87 74 68 48 35 61 71 42 29 32 65 84 87 90 94 58 58 74 68 100 100 100 100 100 97
71 61 52 100 100 100 100 100 100 100 100 100 100 100 100 100 100 100 100 94 81 55 55 94 100 90 61 61 84 94 90 90 23 6 19 90 87 97 100 100 100 100 100
71 68 23 87 100 100 100 100 100 100 100 100 100 100 100 100 100 100 100 100 100 100 97 90 94 97 94 97 97 100 100 100 100 0 0 65 94 100 100 100 100 100 100
71 81 29 10 94 100 100 100 100 100 100 100 100 100 100 100 100 100 100 100 100 100 100 100 97 90 100 100 100 100 100 100 90 0 0 29 100 100 100 100 100 100 100
84 90 39 6 87 90 87 100 100 100 100 100 100 100 100 100 100 100 100 100 100 100 100 100 100 100 100 100 100 100 100 100 32 3 3 58 100 100 100 100 100 100 100
100 94 61 29 97 84 10 81 90 90 100 100 100 100 100 100 100 100 100 100 100 100 100 100 100 100 100 100 100 100 100 94 77 39 61 100 100 100 100 100 100 100 100
100 100 77 77 97 74 90 94 84 81 100 100 100 100 100 100 100 100 100 100 100 100 100 100 100 100 100 100 74 97 94 84 97 84 97 100 100 100 100 100 100 100 100
100 100 100 97 100 100 100 97 100 97 100 100 100 100 100 100 100 100 100 100 100 100 100 100 100 100 100 100 100 100 97 97 94 100 97 100 100 100 100 100 100 100 100
100 100 100 100 100 100 100 100 100 100 100 100 100 100 100 100 100 100 100 100 100 100 100 100 100 100 100 100 100 100 100 100 100 100 100 100 100 100 100 100 100 100 100
100 100 100 100 100 100 100 100 100 100 100 100 100 100 100 100 100 100 100 100 100 100 100 100 100 100 100 100 100 100 100 100 100 100 100 100 100 100 100 100 100 100 100
100 100 100 100 100 100 100 100 100 100 100 100 100 100 100 100 100 100 100 100 100 100 100 100 100 100 100 100 100 100 100 100 100 100 100 100 100 100 100 100 100 100 100
100 100 100 100 100 100 100 100 100 100 100 100 100 100 100 100 100 100 100 100 100 100 100 97 97 97 94 97 94 94 97 100 100 100 100 100 100 100 100 100 100 100 100
100 100 100 100 100 100 100 100 100 100 100 100 100 100 100 100 100 100 100 100 100 100 97 90 90 87 84 84 77 77 74 84 97 100 100 100 100 100 100 100 100 100 100
100 100 100 100 100 100 100 100 100 100 100 100 100 100 100 100 100 100 100 100 100 100 100 90 84 87 87 81 52 29 42 68 90 100 94 94 97 97 94 90 94 100 100
100 100 100 100 100 100 100 100 100 100 100 100 100 100 100 100 100 100 100 100 100 100 100 84 77 77 81 84 65 32 35 39 55 74 77 77 81 84 87 90 90 84 94
87 87 90 94 100 100 100 100 100 100 100 100 100 100 100 100 100 100 100 97 90 94 97 90 84 77 71 65 35 19 10 16 29 26 65 84 77 81 81 52 71 90 97
35 35 35 68 84 87 100 100 100 100 100 94 97 97 100 100 100 100 94 90 87 87 77 87 77 52 42 32 19 10 0 0 19 48 81 87 87 90 77 58 68 87 100
6 10 13 23 55 87 90 90 97 87 81 84 90 97 100 100 100 100 100 90 94 71 71 58 32 35 16 16 10 3 0 3 3 16 32 74 77 77 71 52 42 58 87
0 0 3 29 74 84 97 97 97 81 74 68 87 97 100 100 100 100 90 84 81 65 48 35 23 23 10 3 3 0 3 6 6 3 3 26 39 42 58 68 65 55 61
0 0 6 39 81 94 97 94 97 94 94 97 90 84 94 97 100 94 84 77 61 35 32 23 3 3 3 0 0 0 0 0 3 3 3 3 6 29 55 81 77 45 26

GEFSSE_con_cape1000_018.txt.gz
Probability
6 100 100 100 100 100 100 100 84 94 100 100 100 100 100 100 100 100 100 100 100 100 100 97 90 94 100 100 100 100 100 100 100 100 100 100 97 97 100 100 97 87 100
16 100 100 100 100 100 100 100 87 97 100 100 100 100 100 100 100 100 100 100 100 100 97 97 90 87 81 90 87 94 94 97 97 100 100 77 87 97 100 100 77 74 90
45 100 100 100 100 100 100 100 97 94 100 100 100 100 100 100 100 100 100 100 100 100 100 97 94 58 29 32 39 58 65 77 81 77 52 6 61 97 100 100 87 87 81
71 100 100 100 100 100 100 100 97 97 100 100 100 100 100 97 97 94 97 100 97 94 90 84 65 58 39 10 0 0 6 10 26 26 16 13 10 81 100 100 81 68 45
74 94 100 100 100 100 100 100 97 97 97 100 100 100 100 94 94 90 90 87 81 55 52 65 77 68 61 39 32 19 6 13 6 6 3 0 0 58 94 97 87 65 35
61 100 100 100 100 100 100 100 100 100 100 100 100 100 100 100 97 94 90 87 84 68 42 45 77 77 90 97 87 77 61 52 35 23 3 0 0 19 90 94 94 87 71
68 100 100 100 100 100 100 100 100 100 100 100 100 100 100 100 100 100 100 100 94 90 81 74 71 90 94 94 100 100 100 100 74 42 13 3 0 23 90 94 94 94 90
61 100 100 100 100 100 100 100 100 100 100 100 100 100 100 100 100 100 100 100 100 100 100 100 90 97 94 97 97 97 100 94 74 35 10 0 0 29 94 97 97 87 87
42 94 100 100 100 100 100 100 100 100 100 100 100 100 100 100 100 100 100 100 100 100 100 100 100 100 100 100 100 100 100 100 94 23 0 0 0 87 97 100 100 94 100
16 71 100 100 100 100 100 100 100 100 100 100 100 100 100 100 100 100 100 100 100 100 100 100 100 100 100 100 100 100 100 100 100 61 23 0 10 100 100 100 100 100 100
16 39 90 97 97 97 100 100 100 100 100 100 100 100 100 100 100 100 100 100 100 100 100 100 100 100 100 100 100 100 100 84 55 35 6 10 68 100 100 100 100 100 100
19 19 55 84 87 87 97 100 100 100 100 100 100 100 100 100 100 100 100 100 100 100 100 100 100 100 100 97 97 100 100 74 35 19 10 68 94 100 100 100 100 100 100
35 6 13 52 68 71 48 39 97 97 97 97 97 100 100 100 100 100 100 100 100 100 100 100 100 100 100 100 84 42 26 29 23 16 13 97 100 100 100 100 100 100 100
35 10 3 16 29 29 6 13 58 58 65 87 90 84 87 90 90 94 87 84 97 100 100 100 100 100 100 97 77 35 3 0 3 3 3 100 100 97 100 100 100 100 100
55 26 0 16 10 10 6 13 16 16 19 35 48 45 65 87 94 97 100 94 100 97 97 97 90 87 84 68 23 6 3 3 6 3 3 100 100 100 100 100 100 100 100
74 58 13 19 16 16 39 42 35 32 32 42 42 39 32 58 90 100 97 90 100 94 90 90 84 81 71 55 16 10 26 35 23 10 10 29 100 100 100 100 100 100 100
74 90 71 55 58 45 71 94 90 97 94 90 94 84 81 74 94 100 94 90 97 97 74 71 68 71 74 55 55 55 58 42 48 32 29 35 68 100 100 100 100 100 100
94 94 100 97 94 94 97 97 100 100 100 100 100 100 100 100 100 97 97 97 94 81 58 45 45 58 52 45 39 19 16 16 23 23 32 39 52 74 97 100 100 100 100
97 97 97 97 97 97 100 100 100 100 100 100 94 97 94 94 97 97 94 90 87 68 58 65 35 32 32 23 19 3 6 3 6 6 10 19 32 55 58 81 100 100 100
94 94 94 94 94 87 90 87 97 97 97 94 90 87 77 77 84 90 87 87 81 68 48 39 32 19 13 10 10 10 0 0 0 0 0 6 6 19 29 35 74 90 100
77 77 87 94 77 74 74 74 65 65 68 68 61 74 71 74 81 94 81 74 68 61 52 39 19 3 0 0 0 0 0 0 0 0 0 0 0 0 0 16 29 26 58
61 58 65 65 61 61 58 58 52 52 52 55 55 48 45 55 58 71 65 55 61 58 48 32 26 13 0 0 0 0 0 0 0 0 0 0 0 0 0 0 3 10 16
39 39 42 45 48 45 39 32 16 6 6 6 6 10 13 26 42 58 58 52 52 29 39 35 32 13 6 0 0 0 0 0 0 0 0 0 0 0 0 0 0 3 3
26 16 23 29 32 32 26 13 6 3 3 3 3 3 3 3 6 16 35 48 32 23 23 23 19 6 3 3 3 0 0 0 0 0 0 0 0 0 0 0 0 0 0
10 3 3 6 10 10 10 3 0 0 0 0 0 0 0 0 0 3 13 10 19 10 10 10 6 0 0 0 0 0 0 0 0 0 0 0 0 0 0 0 0 0 0
0 0 0 3 0 3 6 6 3 0 0 0 0 0 0 0 0 0 0 0 6 6 3 3 0 0 0 0 0 0 0 0 0 0 0 0 0 0 0 0 0 0 0